• In Deutschland
  • Länderverzeichnis
  • Für 7 Tage
  • Wassertemperatur
  • Satellitenkarten
  • Wetterkarte
  • Widgets
  • user-avatar
    Anmelden

    Stündliche Wetter Prutz

    Heute, 29 März, Mittwoch

    Zeit Temperatur Niederschläge Wind Luftdruck Luftfeuchtigkeit
    00:00 +4°C° 0,1 mm 1 m/S 637 mmHg 96%
    01:00 +4°C° 0,1 mm 1 m/S 638 mmHg 97%
    02:00 +4°C° 0 mm 1 m/S 638 mmHg 97%
    03:00 +3°C° 0 mm 1 m/S 637 mmHg 97%
    04:00 +3°C° 0 mm 1 m/S 637 mmHg 97%
    05:00 +3°C° 0 mm 1 m/S 638 mmHg 97%
    06:00 +3°C° 0 mm 1 m/S 638 mmHg 96%
    07:00 +4°C° 0 mm 1 m/S 638 mmHg 96%
    08:00 +5°C° 0 mm 1 m/S 639 mmHg 90%
    09:00 +7°C° 0 mm 1 m/S 639 mmHg 84%
    10:00 +9°C° 0 mm 1 m/S 640 mmHg 78%
    11:00 +9°C° 0 mm 1 m/S 640 mmHg 76%
    12:00 +10°C° 0 mm 1 m/S 640 mmHg 73%
    13:00 +11°C° 0 mm 1 m/S 640 mmHg 70%
    14:00 +11°C° 0 mm 1 m/S 639 mmHg 72%
    15:00 +10°C° 0 mm 1 m/S 639 mmHg 73%
    16:00 +10°C° 0 mm 1 m/S 639 mmHg 74%
    17:00 +8°C° 0 mm 1 m/S 638 mmHg 81%
    18:00 +6°C° 0 mm 1 m/S 638 mmHg 87%
    19:00 +4°C° 0 mm 1 m/S 637 mmHg 94%
    20:00 +4°C° 0 mm 1 m/S 637 mmHg 95%
    21:00 +4°C° 0 mm 1 m/S 638 mmHg 95%
    22:00 +3°C° 0 mm 1 m/S 638 mmHg 96%
    23:00 +3°C° 0 mm 1 m/S 638 mmHg 96%

    Morgen, 30 März, Donnerstag

    Zeit Temperatur Niederschläge Wind Luftdruck Luftfeuchtigkeit
    00:00 +2°C° 0 mm 1 m/S 638 mmHg 96%
    01:00 +2°C° 0 mm 1 m/S 638 mmHg 96%
    02:00 +1°C° 0 mm 1 m/S 637 mmHg 94%
    03:00 +1°C° 0 mm 1 m/S 637 mmHg 93%
    04:00 0°C° 0 mm 1 m/S 636 mmHg 92%
    05:00 +1°C° 0 mm 1 m/S 637 mmHg 88%
    06:00 +2°C° 0 mm 1 m/S 637 mmHg 83%
    07:00 +3°C° 0 mm 1 m/S 638 mmHg 79%
    08:00 +6°C° 0 mm 1 m/S 638 mmHg 72%
    09:00 +8°C° 0 mm 1 m/S 639 mmHg 65%
    10:00 +11°C° 0 mm 1 m/S 640 mmHg 58%
    11:00 +12°C° 0 mm 1 m/S 640 mmHg 56%
    12:00 +13°C° 0 mm 1 m/S 640 mmHg 55%
    13:00 +14°C° 0 mm 1 m/S 640 mmHg 53%
    14:00 +13°C° 0 mm 1 m/S 640 mmHg 56%
    15:00 +13°C° 0 mm 1 m/S 640 mmHg 59%
    16:00 +13°C° 0 mm 1 m/S 639 mmHg 62%
    17:00 +10°C° 0 mm 1 m/S 638 mmHg 72%
    18:00 +7°C° 0 mm 1 m/S 637 mmHg 82%
    19:00 +3°C° 0 mm 0 m/S 636 mmHg 92%
    20:00 +4°C° 0 mm 1 m/S 636 mmHg 92%
    21:00 +4°C° 0 mm 1 m/S 637 mmHg 92%
    22:00 +4°C° 0 mm 1 m/S 637 mmHg 92%
    23:00 +3°C° 0 mm 2 m/S 637 mmHg 92%

    übermorgen, 31 März, Freitag

    Zeit Temperatur Niederschläge Wind Luftdruck Luftfeuchtigkeit
    00:00 +3°C° 0 mm 2 m/S 637 mmHg 92%
    01:00 +3°C° 0 mm 2 m/S 637 mmHg 93%
    02:00 +3°C° 0 mm 2 m/S 636 mmHg 93%
    03:00 +3°C° 0 mm 2 m/S 636 mmHg 93%
    04:00 +3°C° 0 mm 2 m/S 636 mmHg 93%
    05:00 +3°C° 0 mm 2 m/S 636 mmHg 92%
    06:00 +3°C° 0 mm 2 m/S 636 mmHg 90%
    07:00 +3°C° 0 mm 2 m/S 636 mmHg 89%
    08:00 +6°C° 0 mm 2 m/S 636 mmHg 79%
    09:00 +8°C° 0 mm 2 m/S 637 mmHg 70%
    10:00 +10°C° 0 mm 2 m/S 637 mmHg 60%
    11:00 +12°C° 0 mm 2 m/S 637 mmHg 57%
    12:00 +13°C° 0 mm 2 m/S 637 mmHg 54%
    13:00 +14°C° 0 mm 2 m/S 637 mmHg 51%
    14:00 +14°C° 0 mm 2 m/S 636 mmHg 53%
    15:00 +13°C° 0 mm 2 m/S 636 mmHg 56%
    16:00 +13°C° 0 mm 2 m/S 635 mmHg 58%
    17:00 +9°C° 0,1 mm 2 m/S 634 mmHg 69%
    18:00 +7°C° 0,1 mm 2 m/S 633 mmHg 80%
    19:00 +5°C° 0,1 mm 1 m/S 632 mmHg 91%
    20:00 +4°C° 0 mm 2 m/S 632 mmHg 91%
    21:00 +4°C° 0 mm 2 m/S 632 mmHg 92%
    22:00 +4°C° 0 mm 2 m/S 633 mmHg 92%
    23:00 +3°C° 0 mm 2 m/S 632 mmHg 92%

    1 April, Samstag

    Zeit Temperatur Niederschläge Wind Luftdruck Luftfeuchtigkeit
    00:00 +3°C° 0 mm 2 m/S 632 mmHg 92%
    01:00 +2°C° 0 mm 2 m/S 632 mmHg 92%
    02:00 +2°C° 0 mm 2 m/S 632 mmHg 91%
    03:00 +2°C° 0 mm 2 m/S 631 mmHg 91%
    04:00 +2°C° 0 mm 2 m/S 631 mmHg 90%
    05:00 +2°C° 0 mm 2 m/S 631 mmHg 88%
    06:00 +2°C° 0 mm 2 m/S 631 mmHg 86%
    07:00 +3°C° 0 mm 2 m/S 631 mmHg 84%
    08:00 +5°C° 0 mm 2 m/S 632 mmHg 75%
    09:00 +7°C° 0 mm 2 m/S 632 mmHg 67%
    10:00 +9°C° 0 mm 2 m/S 632 mmHg 59%
    11:00 +9°C° 0,1 mm 2 m/S 632 mmHg 57%
    12:00 +10°C° 0,1 mm 2 m/S 632 mmHg 55%
    13:00 +12°C° 0,1 mm 2 m/S 632 mmHg 53%
    14:00 +10°C° 0,4 mm 2 m/S 632 mmHg 58%
    15:00 +10°C° 0,4 mm 2 m/S 631 mmHg 63%
    16:00 +9°C° 0,4 mm 2 m/S 631 mmHg 67%
    17:00 +7°C° 0,6 mm 2 m/S 630 mmHg 75%
    18:00 +6°C° 0,6 mm 1 m/S 630 mmHg 84%
    19:00 +4°C° 0,6 mm 1 m/S 630 mmHg 92%
    20:00 +4°C° 0,4 mm 1 m/S 630 mmHg 93%
    21:00 +4°C° 0,4 mm 1 m/S 630 mmHg 93%
    22:00 +2°C° 0,4 mm 2 m/S 631 mmHg 94%
    23:00 +3°C° 0,2 mm 1 m/S 631 mmHg 94%

    2 April, Sonntag

    Zeit Temperatur Niederschläge Wind Luftdruck Luftfeuchtigkeit
    00:00 +3°C° 0,2 mm 1 m/S 631 mmHg 94%
    01:00 +3°C° 0,2 mm 1 m/S 631 mmHg 94%
    02:00 +2°C° 0,1 mm 1 m/S 631 mmHg 93%
    03:00 +2°C° 0,1 mm 1 m/S 631 mmHg 93%
    04:00 +2°C° 0,1 mm 1 m/S 631 mmHg 93%
    05:00 +2°C° 0 mm 1 m/S 632 mmHg 89%
    06:00 +2°C° 0 mm 0 m/S 632 mmHg 86%
    07:00 +3°C° 0 mm 0 m/S 633 mmHg 82%
    08:00 +5°C° 0 mm 0 m/S 634 mmHg 76%
    09:00 +7°C° 0 mm 0 m/S 634 mmHg 69%
    10:00 +9°C° 0 mm 1 m/S 635 mmHg 63%
    11:00 +10°C° 0,2 mm 1 m/S 635 mmHg 63%
    12:00 +10°C° 0,2 mm 1 m/S 635 mmHg 63%
    13:00 +11°C° 0,2 mm 1 m/S 635 mmHg 63%
    14:00 +10°C° 0,4 mm 1 m/S 635 mmHg 67%
    15:00 +10°C° 0,4 mm 1 m/S 635 mmHg 71%
    16:00 +9°C° 0,4 mm 1 m/S 635 mmHg 75%
    17:00 +8°C° 0,5 mm 1 m/S 634 mmHg 82%
    18:00 +6°C° 0,5 mm 1 m/S 634 mmHg 88%
    19:00 +4°C° 0,5 mm 1 m/S 633 mmHg 95%
    20:00 +5°C° 0,5 mm 1 m/S 634 mmHg 96%
    21:00 +5°C° 0,5 mm 1 m/S 634 mmHg 96%
    22:00 +5°C° 0,5 mm 1 m/S 634 mmHg 97%
    23:00 +4°C° 0,4 mm 1 m/S 634 mmHg 97%

    3 April, Montag

    Zeit Temperatur Niederschläge Wind Luftdruck Luftfeuchtigkeit
    00:00 +4°C° 0,4 mm 1 m/S 634 mmHg 97%
    01:00 +4°C° 0,4 mm 1 m/S 634 mmHg 98%
    02:00 +4°C° 0,5 mm 1 m/S 634 mmHg 98%
    03:00 +3°C° 0,5 mm 1 m/S 634 mmHg 98%
    04:00 +3°C° 0,5 mm 1 m/S 633 mmHg 98%
    05:00 +3°C° 1,2 mm 1 m/S 634 mmHg 97%
    06:00 +3°C° 1,2 mm 1 m/S 634 mmHg 96%
    07:00 +3°C° 1,2 mm 1 m/S 634 mmHg 96%
    08:00 +3°C° 1 mm 2 m/S 634 mmHg 94%
    09:00 +3°C° 1 mm 2 m/S 634 mmHg 93%
    10:00 +3°C° 1 mm 2 m/S 634 mmHg 92%
    11:00 +3°C° 0,5 mm 2 m/S 634 mmHg 91%
    12:00 +3°C° 0,5 mm 2 m/S 634 mmHg 91%
    13:00 +4°C° 0,5 mm 2 m/S 634 mmHg 90%
    14:00 +4°C° 0,3 mm 2 m/S 634 mmHg 90%
    15:00 +3°C° 0,3 mm 2 m/S 634 mmHg 89%
    16:00 +3°C° 0,3 mm 2 m/S 634 mmHg 89%
    17:00 +2°C° 0,1 mm 2 m/S 634 mmHg 91%
    18:00 +1°C° 0,1 mm 2 m/S 633 mmHg 94%
    19:00 +1°C° 0,1 mm 1 m/S 633 mmHg 96%
    20:00 +1°C° 0,1 mm 1 m/S 633 mmHg 96%
    21:00 0°C° 0,1 mm 1 m/S 633 mmHg 96%
    22:00 -1°C° 0,1 mm 1 m/S 634 mmHg 97%
    23:00 -2°C° 0 mm 1 m/S 633 mmHg 96%
    Mehr zeigen